Home   Weather   Willemstad   Past weeks

Flag for Curaçao Past Weather in Willemstad, Curaçao — Yesterday and Last 2 Weeks

Now
82 °F

Passing clouds.


Feels Like: 89 °F
Forecast: 80 / 87 °F
Wind: 13 mph from East

Location: Hato Airport - Curacao

Current Time: Jun 27, 2017 at 8:24:57 pm

Latest Report: Jun 27, 2017 at 8:00 pm


Visibility: N/A

Pressure: 29.92 "Hg

Humidity: 79%

Dew Point: 75 °F

Location of WillemstadLocation

Past Weather in Willemstad — Graph

°F

Willemstad Temperature Yesterday

Maximum temperature yesterday: 88 °F (at 12:00 pm)
Minimum temperature yesterday: 79 °F (at 6:00 am)
Average temperature yesterday: 83 °F

High & Low Weather Summary for the Past Weeks

 TemperatureHumidityPressure
High90 °F (Jun 13, 12:00 pm)94% (Jun 20, 11:00 pm)30.01 "Hg (Jun 20, 11:00 pm)
Low77 °F (Jun 21, 12:00 am)59% (Jun 13, 12:00 pm)29.83 "Hg (Jun 13, 4:00 pm)
Average83 °F74%29.91 "Hg
* Reported Jun 12 7:00 pm — Jun 27 7:00 pm, Willemstad. Weather by CustomWeather, © 2017

Note: Actual official high and low records may vary slightly from our data, if they occured in-between our weather recording intervals... More about our weather records

Advertising

Willemstad Weather History for the Previous 24 Hours

Scroll right to see more
 ConditionsComfort  
Time TempWeatherWind HumidityBarometerVisibility
7:00 pm
Tue, Jun 27
82 °FPassing clouds.14 mph74%29.89 "HgN/A
6:00 pm84 °FPassing clouds.10 mph74%29.89 "HgN/A
5:00 pm86 °FPassing clouds.13 mph70%29.89 "HgN/A
4:00 pm88 °FPassing clouds.15 mph66%29.89 "HgN/A
3:00 pm90 °FPassing clouds.15 mph59%29.92 "HgN/A
2:00 pm88 °FPassing clouds.16 mph62%29.95 "HgN/A
1:00 pm90 °FScattered clouds.15 mph59%29.95 "HgN/A
11:00 am88 °FScattered clouds.14 mph66%29.98 "HgN/A
10:00 am88 °FScattered clouds.15 mph66%29.98 "HgN/A
9:00 am86 °FScattered clouds.13 mph70%29.98 "HgN/A
8:00 am84 °FPassing clouds.10 mph70%29.98 "HgN/A
7:00 am82 °FPassing clouds.10 mph74%29.95 "HgN/A
6:00 am81 °FPassing clouds.10 mph84%29.95 "HgN/A
5:00 am81 °FPassing clouds.13 mph84%29.92 "HgN/A
4:00 am81 °FPassing clouds.13 mph84%29.92 "HgN/A
3:00 am81 °FPassing clouds.13 mph84%29.92 "HgN/A
2:00 am81 °FPassing clouds.12 mph84%29.95 "HgN/A
1:00 am82 °FPassing clouds.12 mph79%29.95 "HgN/A
12:00 am82 °FPassing clouds.13 mph79%29.95 "HgN/A
11:00 pm
Mon, Jun 26
82 °FPassing clouds.10 mph79%29.95 "HgN/A
9:00 pm82 °FPassing clouds.12 mph79%29.92 "HgN/A
8:00 pm82 °FPassing clouds.14 mph79%29.92 "HgN/A
Weather by CustomWeather, © 2017

See weather overviewHow to use our weather pages